Tracking 29892 objects as of 21-Nov-2024
HD Live streaming from Space Station
objects crossing your sky now

STARLINK-1711

Track STARLINK-1711 now!
10-day predictions
STARLINK-1711 is classified as:


NORAD ID: 46374
Int'l Code: 2020-062BB
Perigee: 408.2 km
Apogee: 412.2 km
Inclination: 53.1 °
Period: 92.6 minutes
Semi major axis: 6781 km
RCS: Unknown
Launch date: September 3, 2020
Source: United States (US)
Launch site: AIR FORCE EASTERN TEST RANGE (AFETR)
Your satellite tracking list
Your tracking list is empty




NASA's NSSDC Master Catalog

Two Line Element Set (TLE):
1 46374U 20062BB  24325.08041507  .00096658  00000-0  14219-2 0  9998
2 46374  53.0521 267.4623 0002933 117.3416 242.7892 15.54690139234053
Source of the keplerian elements: AFSPC